Hourly Data Report for October 01, 2015

All times are specified in Local Standard Time (LST). Add 1 hour to adjust for Daylight Saving Time where and when it is observed.

PETAWAWA AWOS 2
ONTARIO

45°57'00.000" N
77°19'00.000" W
130.10 m
6106396
71625
YWA

Download Data

Hourly Data (October 2015)
Hourly Data Report for October 1, 2015
Temp Definition
°C
Dew Point Temp Definition
°C
Rel Hum Definition
%
Wind Dir Definition
10's deg

Wind Spd Definition
km/h
Visibility Definition
km
Stn Press Definition
kPa
Hmdx Definition


Wind Chill Definition


Weather Definition


TIME
00:00 4.7 -0.3 70 34 13 14.5 101.26     LegendNANA
01:00 4.3 -0.3 72 34 13 14.5 101.30     LegendNANA
02:00 3.7 -0.5 74 33 11 14.5 101.33     LegendNANA
03:00 4.4 0.1 74 36 17 14.5 101.32     LegendNANA
04:00 4.3 0.4 76 1 19 14.5 101.36     LegendNANA
05:00 4.0 0.1 76 1 17 14.5 101.45     LegendNANA
06:00 3.9 0.3 77 1 17 14.5 101.49     LegendNANA
07:00 4.3 0.8 78 1 20 14.5 101.52     LegendNANA
08:00 5.7 0.8 71 3 17 14.5 101.57     LegendNANA
09:00 7.3 0.6 62 1 9 14.5 101.63     LegendNANA
10:00 9.5 0.8 54 5 11 14.5 101.66     LegendNANA
11:00 10.6 -0.2 47 5 17 14.5 101.61     LegendNANA
12:00 12.5 0.7 44 2 20 14.5 101.57     LegendNANA
13:00 13.3 1.0 43 6 17 14.5 101.52     LegendNANA
14:00 13.7 -0.2 38 2 22 14.5 101.48     LegendNANA
15:00 13.9 -0.1 38 2 17 14.5 101.48     LegendNANA
16:00 13.4 -1.0 37 1 19 14.5 101.48     LegendNANA
17:00 12.8 -0.3 40 2 22 14.5 101.53     LegendNANA
18:00 11.6 0.6 47 1 15 14.5 101.57     LegendNANA
19:00 10.4 0.4 50 36 13 14.5 101.64     LegendNANA
20:00 9.9 0.8 53 1 15 14.5 101.72     LegendNANA
21:00 9.3 -0.1 52 2 17 14.5 101.75     LegendNANA
22:00 8.6 -0.3 54 5 19 14.5 101.77     LegendNANA
23:00 8.0 -0.4 55 4 17 14.5 101.79     LegendNANA

Notes on Data Quality.

Legend

  • E = Estimated
  • M = Missing
  • NA = Not Available
  • ‡ = Partner data that is not subject to review by the National Climate Archives
Date modified: